Time,TemperatureF,DewpointF,PressureIn,WindDirection,WindDirectionDegrees,WindSpeedMPH,WindSpeedGustMPH,Humidity,HourlyPrecipIn,Conditions,Clouds,dailyrainin,SoftwareType,DateUTC
2015-05-28 00:02:00,53.0,43.0,-100.00,NNE,22,2.0,8.0,70,-99.99,,,-99.99,,2015-05-28 07:02:00,
2015-05-28 00:11:00,53.0,43.0,-100.00,NNE,22,2.0,8.0,70,-99.99,,,-99.99,,2015-05-28 07:11:00,
2015-05-28 00:21:00,53.0,43.0,-100.00,NNE,22,2.0,8.0,70,-99.99,,,-99.99,,2015-05-28 07:21:00,
2015-05-28 00:52:00,52.0,44.0,-100.00,North,355,4.0,10.0,74,-99.99,,,-99.99,,2015-05-28 07:52:00,
2015-05-28 01:03:00,52.0,44.0,-100.00,North,355,4.0,10.0,74,-99.99,,,-99.99,,2015-05-28 08:03:00,
2015-05-28 01:11:00,52.0,44.0,-100.00,North,355,4.0,10.0,74,-99.99,,,-99.99,,2015-05-28 08:11:00,
2015-05-28 01:21:00,52.0,44.0,-100.00,North,355,4.0,10.0,74,-99.99,,,-99.99,,2015-05-28 08:21:00,
2015-05-28 01:51:00,52.0,44.0,-100.00,North,358,6.0,11.0,73,-99.99,,,-99.99,,2015-05-28 08:51:00,
2015-05-28 02:02:00,52.0,44.0,-100.00,North,358,6.0,11.0,73,-99.99,,,-99.99,,2015-05-28 09:02:00,
2015-05-28 02:11:00,52.0,44.0,-100.00,North,358,6.0,11.0,73,-99.99,,,-99.99,,2015-05-28 09:11:00,
2015-05-28 02:21:00,52.0,44.0,-100.00,North,358,6.0,11.0,73,-99.99,,,-99.99,,2015-05-28 09:21:00,
2015-05-28 02:51:00,51.0,43.0,-100.00,North,359,7.0,13.0,73,-99.99,,,-99.99,,2015-05-28 09:51:00,
2015-05-28 03:02:00,51.0,43.0,-100.00,North,359,7.0,13.0,73,-99.99,,,-99.99,,2015-05-28 10:02:00,
2015-05-28 03:11:00,51.0,43.0,-100.00,North,359,7.0,13.0,73,-99.99,,,-99.99,,2015-05-28 10:11:00,
2015-05-28 03:21:00,51.0,43.0,-100.00,North,359,7.0,13.0,73,-99.99,,,-99.99,,2015-05-28 10:21:00,
2015-05-28 03:52:00,51.0,42.0,-100.00,North,7,6.0,14.0,71,-99.99,,,-99.99,,2015-05-28 10:52:00,
2015-05-28 04:02:00,51.0,42.0,-100.00,North,7,6.0,14.0,71,-99.99,,,-99.99,,2015-05-28 11:02:00,
2015-05-28 04:11:00,51.0,42.0,-100.00,North,7,6.0,14.0,71,-99.99,,,-99.99,,2015-05-28 11:11:00,
2015-05-28 04:21:00,51.0,42.0,-100.00,North,7,6.0,14.0,71,-99.99,,,-99.99,,2015-05-28 11:21:00,
2015-05-28 04:52:00,51.0,41.0,-100.00,North,6,7.0,16.0,69,-99.99,,,-99.99,,2015-05-28 11:52:00,
2015-05-28 05:01:00,51.0,41.0,-100.00,North,6,7.0,16.0,69,-99.99,,,-99.99,,2015-05-28 12:01:00,
2015-05-28 05:11:00,51.0,41.0,-100.00,North,6,7.0,16.0,69,-99.99,,,-99.99,,2015-05-28 12:11:00,
2015-05-28 05:21:00,51.0,41.0,-100.00,North,6,7.0,16.0,69,-99.99,,,-99.99,,2015-05-28 12:21:00,
2015-05-28 05:52:00,51.0,40.0,-100.00,North,3,7.0,14.0,67,-99.99,,,-99.99,,2015-05-28 12:52:00,
2015-05-28 06:02:00,51.0,40.0,-100.00,North,3,7.0,14.0,67,-99.99,,,-99.99,,2015-05-28 13:02:00,
2015-05-28 06:11:00,51.0,40.0,-100.00,North,3,7.0,14.0,67,-99.99,,,-99.99,,2015-05-28 13:11:00,
2015-05-28 06:21:00,51.0,40.0,-100.00,North,3,7.0,14.0,67,-99.99,,,-99.99,,2015-05-28 13:21:00,
2015-05-28 06:52:00,53.0,40.0,-100.00,North,359,6.0,12.0,62,-99.99,,,-99.99,,2015-05-28 13:52:00,
2015-05-28 07:02:00,53.0,40.0,-100.00,North,359,6.0,12.0,62,-99.99,,,-99.99,,2015-05-28 14:02:00,
2015-05-28 07:11:00,53.0,40.0,-100.00,North,359,6.0,12.0,62,-99.99,,,-99.99,,2015-05-28 14:11:00,
2015-05-28 07:21:00,53.0,40.0,-100.00,North,359,6.0,12.0,62,-99.99,,,-99.99,,2015-05-28 14:21:00,
2015-05-28 07:52:00,56.0,40.0,-100.00,North,3,5.0,10.0,54,-99.99,,,-99.99,,2015-05-28 14:52:00,
2015-05-28 08:02:00,56.0,40.0,-100.00,North,3,5.0,10.0,54,-99.99,,,-99.99,,2015-05-28 15:02:00,
2015-05-28 08:12:00,56.0,40.0,-100.00,North,3,5.0,10.0,54,-99.99,,,-99.99,,2015-05-28 15:12:00,
2015-05-28 08:21:00,56.0,40.0,-100.00,North,3,5.0,10.0,54,-99.99,,,-99.99,,2015-05-28 15:21:00,
2015-05-28 08:52:00,58.0,40.0,-100.00,North,8,4.0,9.0,51,-99.99,,,-99.99,,2015-05-28 15:52:00,
2015-05-28 09:02:00,58.0,40.0,-100.00,North,8,4.0,9.0,51,-99.99,,,-99.99,,2015-05-28 16:02:00,
2015-05-28 09:11:00,58.0,40.0,-100.00,North,8,4.0,9.0,51,-99.99,,,-99.99,,2015-05-28 16:11:00,
2015-05-28 09:21:00,58.0,40.0,-100.00,North,8,4.0,9.0,51,-99.99,,,-99.99,,2015-05-28 16:21:00,
2015-05-28 09:52:00,64.0,44.0,-100.00,SSW,204,3.0,7.0,48,-99.99,,,-99.99,,2015-05-28 16:52:00,
2015-05-28 10:02:00,64.0,44.0,-100.00,SSW,204,3.0,7.0,48,-99.99,,,-99.99,,2015-05-28 17:02:00,
2015-05-28 10:11:00,64.0,44.0,-100.00,SSW,204,3.0,7.0,48,-99.99,,,-99.99,,2015-05-28 17:11:00,
2015-05-28 10:21:00,64.0,44.0,-100.00,SSW,204,3.0,7.0,48,-99.99,,,-99.99,,2015-05-28 17:21:00,
2015-05-28 10:52:00,66.0,46.0,-100.00,South,180,3.0,7.0,48,-99.99,,,-99.99,,2015-05-28 17:52:00,
2015-05-28 11:03:00,66.0,46.0,-100.00,South,180,3.0,7.0,48,-99.99,,,-99.99,,2015-05-28 18:03:00,
2015-05-28 11:11:00,66.0,46.0,-100.00,South,180,3.0,7.0,48,-99.99,,,-99.99,,2015-05-28 18:11:00,
2015-05-28 11:21:00,66.0,46.0,-100.00,South,180,3.0,7.0,48,-99.99,,,-99.99,,2015-05-28 18:21:00,
2015-05-28 11:52:00,69.0,47.0,-100.00,SSW,205,5.0,11.0,46,-99.99,,,-99.99,,2015-05-28 18:52:00,
2015-05-28 12:03:00,69.0,47.0,-100.00,SSW,205,5.0,11.0,46,-99.99,,,-99.99,,2015-05-28 19:03:00,
2015-05-28 12:11:00,69.0,47.0,-100.00,SSW,205,5.0,11.0,46,-99.99,,,-99.99,,2015-05-28 19:11:00,
2015-05-28 12:21:00,69.0,47.0,-100.00,SSW,205,5.0,11.0,46,-99.99,,,-99.99,,2015-05-28 19:21:00,
2015-05-28 12:53:00,68.0,45.0,-100.00,South,188,5.0,15.0,44,-99.99,,,-99.99,,2015-05-28 19:53:00,
2015-05-28 13:02:00,68.0,45.0,-100.00,South,188,5.0,15.0,44,-99.99,,,-99.99,,2015-05-28 20:02:00,
2015-05-28 13:11:00,68.0,45.0,-100.00,South,188,5.0,15.0,44,-99.99,,,-99.99,,2015-05-28 20:11:00,
2015-05-28 13:21:00,68.0,45.0,-100.00,South,188,5.0,15.0,44,-99.99,,,-99.99,,2015-05-28 20:21:00,
2015-05-28 13:52:00,71.0,45.0,-100.00,SSW,212,8.0,16.0,39,-99.99,,,-99.99,,2015-05-28 20:52:00,
2015-05-28 14:02:00,71.0,45.0,-100.00,SSW,212,8.0,16.0,39,-99.99,,,-99.99,,2015-05-28 21:02:00,
2015-05-28 14:11:00,71.0,45.0,-100.00,SSW,212,8.0,16.0,39,-99.99,,,-99.99,,2015-05-28 21:11:00,
2015-05-28 14:21:00,71.0,45.0,-100.00,SSW,212,8.0,16.0,39,-99.99,,,-99.99,,2015-05-28 21:21:00,
2015-05-28 14:52:00,68.0,43.0,-100.00,South,172,11.0,21.0,40,-99.99,,,-99.99,,2015-05-28 21:52:00,
2015-05-28 15:03:00,68.0,43.0,-100.00,South,172,11.0,21.0,40,-99.99,,,-99.99,,2015-05-28 22:03:00,
2015-05-28 15:11:00,68.0,43.0,-100.00,South,172,11.0,21.0,40,-99.99,,,-99.99,,2015-05-28 22:11:00,
2015-05-28 15:21:00,68.0,43.0,-100.00,South,172,11.0,21.0,40,-99.99,,,-99.99,,2015-05-28 22:21:00,
2015-05-28 15:52:00,72.0,44.0,-100.00,South,174,6.0,17.0,37,-99.99,,,-99.99,,2015-05-28 22:52:00,